DW2150 Weather Reports


time (UTC)temp
F
wind
direction
speed
knots
gust
knots
rain 1hr
in
rain 24hr
in
rain mn
in
humidity
%
barometer
mb
20260902014410 80 244 0.0 0.0 0.00 0.01 0.01 88 1012.9
20260902013907 80 244 0.0 0.0 0.00 0.01 0.01 88 1012.5
20260902013404 81 244 0.0 0.0 0.00 0.01 0.01 88 1012.5
20260902012900 81 244 0.0 0.0 0.00 0.01 0.01 88 1012.5
20260902012326 81 244 0.0 0.0 0.00 0.01 0.01 87 1012.5
20260902011823 81 244 0.0 0.0 0.00 0.01 0.01 87 1012.5
20260902010815 82 244 0.0 1.7 0.00 0.01 0.01 87 1012.2
20260902010311 82 244 0.0 3.5 0.00 0.01 0.01 86 1012.5
20260902005646 82 244 0.0 3.5 0.00 0.01 0.01 86 1012.2
20260902005143 82 244 0.9 3.5 0.00 0.01 0.01 86 1012.5
20260902004639 82 263 1.7 4.3 0.00 0.01 0.01 85 1012.5
20260902004137 82 252 0.9 5.2 0.00 0.01 0.01 85 1012.5
20260902003634 82 252 1.7 5.2 0.00 0.01 0.01 85 1012.5
20260902003131 82 302 0.9 5.2 0.00 0.01 0.01 84 1012.5
20260902002628 83 248 3.5 5.2 0.00 0.01 0.01 84 1012.5
20260902002124 83 243 0.9 4.3 0.00 0.01 0.01 85 1012.5
20260902001621 83 234 1.7 4.3 0.00 0.01 0.01 85 1012.5
20260902001118 83 260 1.7 4.3 0.00 0.01 0.01 85 1012.9
20260902000615 83 268 1.7 4.3 0.00 0.01 0.01 84 1012.9
20260902000113 83 254 0.9 4.3 0.00 0.01 0.01 85 1012.9
20260901235542 83 254 1.7 5.2 0.00 0.01 0.01 85 1012.5
20260901235021 83 264 1.7 5.2 0.00 0.01 0.01 84 1012.5
20260901234518 83 247 1.7 5.2 0.00 0.01 0.01 84 1012.9
20260901233956 83 255 1.7 5.2 0.00 0.01 0.01 85 1012.9
20260901233453 83 250 2.6 4.3 0.00 0.01 0.01 86 1012.5
20260901232950 83 290 1.7 4.3 0.00 0.01 0.01 86 1012.5
20260901232447 83 266 1.7 4.3 0.00 0.01 0.01 86 1012.9
20260901231926 83 248 1.7 4.3 0.00 0.01 0.01 86 1012.9
20260901231423 83 298 0.9 3.5 0.00 0.01 0.01 86 1012.9
20260901230920 84 262 0.0 2.6 0.00 0.01 0.01 87 1012.9
20260901230241 84 263 0.0 2.6 0.00 0.01 0.01 87 1012.9
20260901225706 84 300 1.7 3.5 0.00 0.01 0.01 87 1012.9
20260901225202 84 257 0.9 3.5 0.00 0.01 0.01 86 1013.2
20260901224700 84 258 1.7 3.5 0.00 0.01 0.01 86 1013.2
20260901224157 84 57 0.9 5.2 0.00 0.01 0.01 86 1013.2
20260901223653 84 78 0.9 5.2 0.00 0.01 0.01 85 1013.2
20260901223150 85 307 0.9 5.2 0.00 0.01 0.01 85 1013.2
20260901222647 85 265 1.7 3.5 0.00 0.01 0.01 85 1012.9
20260901222144 85 273 1.7 6.1 0.00 0.01 0.01 86 1012.9
20260901221641 85 272 0.9 6.1 0.00 0.01 0.01 86 1012.9
20260901221138 85 272 1.7 6.1 0.00 0.01 0.01 86 1012.9
20260901220635 85 252 2.6 6.1 0.00 0.01 0.01 85 1012.9
20260901220113 85 254 1.7 5.2 0.00 0.01 0.01 85 1012.9
20260901215547 85 257 2.6 5.2 0.00 0.01 0.01 85 1012.9
20260901215044 85 251 2.6 5.2 0.00 0.01 0.01 85 1012.9
20260901214541 85 255 2.6 6.1 0.00 0.01 0.01 85 1012.9
20260901214007 85 253 2.6 6.1 0.00 0.01 0.01 84 1013.2
20260901213502 85 250 2.6 6.1 0.00 0.01 0.01 84 1013.2
20260901212959 85 249 3.5 6.1 0.00 0.01 0.01 83 1013.2
20260901212456 85 255 1.7 5.2 0.00 0.01 0.01 83 1013.5
20260901211953 85 255 1.7 5.2 0.00 0.01 0.01 83 1013.5
20260901211450 85 286 0.9 5.2 0.00 0.01 0.01 83 1013.5
20260901210947 85 269 1.7 5.2 0.00 0.01 0.01 83 1013.5
20260901210444 85 245 2.6 6.1 0.00 0.01 0.01 83 1013.5
20260901205910 85 255 2.6 6.1 0.00 0.01 0.01 84 1013.5
20260901205407 84 251 1.7 6.1 0.00 0.01 0.01 84 1013.5
20260901204904 84 251 2.6 6.1 0.00 0.01 0.01 83 1013.5
20260901204401 84 248 2.6 6.1 0.00 0.01 0.01 84 1013.5
20260901203827 84 249 2.6 6.1 0.00 0.01 0.01 84 1013.2
20260901203324 84 241 2.6 6.1 0.00 0.01 0.01 84 1013.2
20260901202822 84 244 2.6 6.1 0.00 0.01 0.01 85 1013.2
20260901202319 83 254 3.5 6.1 0.00 0.01 0.01 84 1013.2
20260901201714 83 255 2.6 6.1 0.00 0.01 0.01 85 1013.2
20260901201211 83 248 2.6 6.1 0.00 0.01 0.01 85 1013.2
20260901200709 83 245 2.6 6.1 0.00 0.01 0.01 85 1013.5
20260901200205 83 247 1.7 5.2 0.00 0.01 0.01 86 1013.5
20260901195702 83 264 2.6 3.5 0.01 0.01 0.01 85 1013.9
20260901195158 83 229 1.7 4.3 0.01 0.01 0.01 86 1013.9
20260901194655 83 269 1.7 4.3 0.01 0.01 0.01 86 1014.2
20260901194152 83 228 0.9 4.3 0.01 0.01 0.01 86 1014.2
20260901193650 83 255 1.7 4.3 0.01 0.01 0.01 86 1014.2
20260901193116 83 270 1.7 4.3 0.01 0.01 0.01 86 1014.2
20260901192613 83 261 1.7 4.3 0.01 0.01 0.01 87 1014.2
20260901192051 83 293 1.7 4.3 0.01 0.01 0.01 87 1014.2
20260901191548 83 257 1.7 4.3 0.01 0.01 0.01 87 1014.2
20260901191045 83 250 1.7 4.3 0.01 0.01 0.01 88 1014.6
20260901190542 83 247 1.7 4.3 0.01 0.01 0.01 89 1014.6
20260901190039 83 246 0.0 4.3 0.00 0.00 0.00 89 1014.6
20260901185521 83 244 1.7 4.3 0.00 0.00 0.00 88 1014.9
20260901185019 83 236 0.0 3.5 0.00 0.00 0.00 88 1014.9
20260901184515 84 236 0.0 3.5 0.00 0.00 0.00 87 1014.9
20260901184012 84 295 0.9 3.5 0.00 0.00 0.00 87 1014.9
20260901183509 84 263 0.9 3.5 0.00 0.00 0.00 86 1014.9
20260901183006 84 336 0.9 3.5 0.00 0.00 0.00 85 1014.9
20260901182432 84 270 0.9 3.5 0.00 0.00 0.00 84 1014.9
20260901181929 84 280 1.7 4.3 0.00 0.00 0.00 85 1014.9
20260901181417 84 282 0.9 4.3 0.00 0.00 0.00 85 1014.9
20260901180914 84 279 0.9 4.3 0.00 0.00 0.00 84 1014.9
20260901180411 84 306 0.9 4.3 0.00 0.00 0.00 83 1014.9
20260901175854 84 251 1.7 3.5 0.00 0.00 0.00 83 1014.9
20260901175332 84 325 1.7 2.6 0.00 0.00 0.00 84 1014.9
20260901174740 84 191 1.7 3.5 0.00 0.00 0.00 84 1015.2
20260901174236 84 249 1.7 3.5 0.00 0.00 0.00 84 1015.2
20260901173714 84 256 1.7 4.3 0.00 0.00 0.00 84 1015.2
20260901173211 84 237 1.7 4.3 0.00 0.00 0.00 84 1015.2
20260901172708 84 253 0.9 4.3 0.00 0.00 0.00 85 1015.6
20260901172205 84 289 1.7 4.3 0.00 0.00 0.00 84 1015.6
20260901171644 84 277 0.9 3.5 0.00 0.00 0.00 85 1015.9
20260901171141 84 276 1.7 2.6 0.00 0.00 0.00 84 1015.9
20260901170638 84 55 0.9 2.6 0.00 0.00 0.00 84 1016.3
20260901170136 84 57 0.9 2.6 0.00 0.00 0.00 83 1016.3
20260901165611 84 349 0.9 5.2 0.00 0.00 0.00 84 1015.9
20260901165109 85 5 0.9 5.2 0.00 0.00 0.00 83 1016.3
20260901164606 85 45 0.9 5.2 0.00 0.00 0.00 83 1016.3
20260901164103 85 72 0.9 5.2 0.00 0.00 0.00 82 1016.3
20260901163600 85 259 0.9 7.0 0.00 0.00 0.00 82 1016.3
20260901163025 85 86 0.9 7.0 0.00 0.00 0.00 82 1016.3
20260901162522 85 28 1.7 7.0 0.00 0.00 0.00 82 1016.3
20260901162018 85 30 1.7 7.0 0.00 0.00 0.00 81 1016.3
20260901161515 86 40 1.7 7.0 0.00 0.00 0.00 81 1016.3
20260901161012 86 45 2.6 7.0 0.00 0.00 0.00 81 1016.3
20260901160431 86 13 2.6 7.0 0.00 0.00 0.00 81 1016.3
20260901155928 86 42 2.6 6.1 0.00 0.00 0.00 81 1016.3
20260901155425 86 52 1.7 4.3 0.00 0.00 0.00 81 1016.3
20260901154851 86 103 0.9 4.3 0.00 0.00 0.00 81 1015.9
20260901154348 86 54 1.7 4.3 0.00 0.00 0.00 81 1015.9
20260901153846 85 351 0.9 4.3 0.00 0.00 0.00 81 1015.9
20260901153343 85 21 1.7 3.5 0.00 0.00 0.00 82 1015.9
20260901152839 85 28 0.9 4.3 0.00 0.00 0.00 82 1015.6
20260901152337 85 76 0.9 4.3 0.00 0.00 0.00 82 1015.6
20260901151834 85 62 1.7 4.3 0.00 0.00 0.00 83 1015.6
20260901151312 85 224 1.7 4.3 0.00 0.00 0.00 84 1015.6
20260901150737 84 236 1.7 2.6 0.00 0.00 0.00 84 1015.6
20260901150216 84 113 0.9 2.6 0.00 0.00 0.00 85 1015.6
20260901145657 84 29 0.9 2.6 0.00 0.00 0.00 85 1015.9
20260901145153 84 155 0.9 1.7 0.00 0.00 0.00 85 1015.9
20260901144650 84 116 0.9 2.6 0.00 0.00 0.00 85 1015.6
20260901144147 84 195 0.9 2.6 0.00 0.00 0.00 86 1015.6
20260901143644 84 87 0.9 2.6 0.00 0.00 0.00 86 1015.6
20260901143141 83 273 0.9 2.6 0.00 0.00 0.00 86 1015.6
20260901142638 83 277 0.9 2.6 0.00 0.00 0.00 87 1015.9
20260901142134 83 331 1.7 2.6 0.00 0.00 0.00 87 1015.9
20260901141631 83 321 0.9 2.6 0.00 0.00 0.00 87 1015.9
20260901141128 83 274 0.9 2.6 0.00 0.00 0.00 87 1015.6
20260901140624 82 41 0.9 3.5 0.00 0.00 0.00 88 1015.9
20260901140059 82 227 0.9 3.5 0.00 0.00 0.00 88 1015.6
20260901135526 82 234 0.9 3.5 0.00 0.00 0.00 88 1015.6
20260901135004 82 233 0.9 2.6 0.00 0.00 0.00 89 1015.6
20260901134359 82 251 1.7 2.6 0.00 0.00 0.00 89 1015.6
20260901133855 82 259 1.7 1.7 0.00 0.00 0.00 89 1015.6
20260901133352 82 5 0.0 0.0 0.00 0.00 0.00 89 1015.6
20260901132849 82 5 0.0 0.0 0.00 0.00 0.00 89 1015.6
20260901132346 82 5 0.0 0.0 0.00 0.00 0.00 89 1015.6
20260901131824 82 335 0.0 0.0 0.00 0.00 0.00 90 1015.6
20260901131250 81 333 0.0 0.0 0.00 0.00 0.00 90 1015.6
20260901130748 81 333 0.0 0.0 0.00 0.00 0.00 90 1015.6
20260901130226 81 333 0.0 0.0 0.00 0.00 0.00 90 1015.6
20260901125629 81 333 0.0 0.0 0.00 0.00 0.00 90 1015.2
20260901125126 81 333 0.0 0.0 0.00 0.00 0.00 90 1015.2
20260901124552 81 333 0.0 0.9 0.00 0.00 0.00 90 1015.2
20260901124047 81 333 0.0 0.9 0.00 0.00 0.00 90 1015.2
20260901123525 81 333 0.0 0.9 0.00 0.00 0.00 90 1015.2
20260901123022 81 333 0.9 0.9 0.00 0.00 0.00 90 1015.2
20260901122519 81 333 0.0 0.9 0.00 0.00 0.00 90 1014.9
20260901122016 81 333 0.0 0.9 0.00 0.00 0.00 90 1014.9
20260901121513 81 333 0.9 0.9 0.00 0.00 0.00 91 1014.9
20260901121011 81 333 0.0 0.9 0.00 0.00 0.00 91 1014.9
20260901120508 81 333 0.0 0.9 0.00 0.00 0.00 91 1014.9
20260901115946 81 333 0.0 0.9 0.00 0.00 0.00 91 1014.6
20260901115443 81 333 0.9 0.9 0.00 0.00 0.00 91 1014.6
20260901114940 81 333 0.9 0.9 0.00 0.00 0.00 91 1014.6
20260901114437 81 332 0.9 0.9 0.00 0.00 0.00 91 1014.6
20260901113903 81 340 0.0 1.7 0.00 0.00 0.00 91 1014.6
20260901113329 81 340 0.9 1.7 0.00 0.00 0.00 91 1014.9
20260901112816 81 340 0.0 1.7 0.00 0.00 0.00 91 1014.9
20260901112312 81 340 0.9 0.9 0.00 0.00 0.00 91 1014.9
20260901111809 81 339 0.0 0.9 0.00 0.00 0.00 91 1014.9
20260901111302 81 339 0.9 0.9 0.00 0.00 0.00 91 1014.6
20260901110758 81 339 0.0 0.9 0.00 0.00 0.00 91 1014.6
20260901110202 81 339 0.0 0.9 0.00 0.00 0.00 91 1014.6
20260901105610 81 341 0.0 1.7 0.00 0.00 0.00 91 1014.6
20260901105107 81 341 0.0 1.7 0.00 0.00 0.00 91 1014.6
20260901104604 81 341 0.9 1.7 0.00 0.00 0.00 91 1014.6
20260901104101 81 346 0.9 1.7 0.00 0.00 0.00 91 1014.6
20260901103559 81 43 0.0 0.9 0.00 0.00 0.00 91 1014.6
20260901103025 81 43 0.0 0.9 0.00 0.00 0.00 91 1014.6
20260901102451 81 43 0.0 0.9 0.00 0.00 0.00 91 1014.6
20260901101930 81 43 0.9 0.9 0.00 0.00 0.00 91 1014.6
20260901101408 81 43 0.0 0.9 0.00 0.00 0.00 91 1014.6
20260901100846 81 43 0.9 0.9 0.00 0.00 0.00 91 1014.6
20260901100325 81 44 0.0 0.9 0.00 0.00 0.00 91 1014.6
20260901095803 81 98 0.9 0.9 0.00 0.00 0.00 91 1014.6
20260901095259 81 98 0.0 0.9 0.00 0.00 0.00 91 1014.6
20260901094756 81 97 0.9 0.9 0.00 0.00 0.00 91 1014.6
20260901094253 81 98 0.9 0.9 0.00 0.00 0.00 91 1014.6
20260901093750 81 98 0.0 1.7 0.00 0.00 0.00 91 1014.9
20260901093231 81 98 0.0 1.7 0.00 0.00 0.00 91 1014.9
20260901092728 81 98 0.0 1.7 0.00 0.00 0.00 92 1014.6
20260901092225 81 98 1.7 1.7 0.00 0.00 0.00 92 1014.9
20260901091722 81 97 0.0 0.9 0.00 0.00 0.00 92 1014.9
20260901091219 81 97 0.0 0.9 0.00 0.00 0.00 92 1014.9
20260901090717 81 97 0.0 0.9 0.00 0.00 0.00 92 1014.9
20260901090214 81 97 0.9 0.9 0.00 0.00 0.00 92 1014.9
20260901085711 81 97 0.0 0.0 0.00 0.00 0.00 92 1014.9
20260901085207 80 97 0.0 0.0 0.00 0.00 0.00 92 1014.9
20260901084704 80 97 0.0 0.0 0.00 0.00 0.00 91 1014.9
20260901084201 80 97 0.0 0.0 0.00 0.00 0.00 91 1014.9
20260901083659 80 97 0.0 0.0 0.00 0.00 0.00 91 1014.9
20260901083156 80 97 0.0 0.0 0.00 0.00 0.00 91 1014.9
20260901082653 81 97 0.0 0.0 0.00 0.00 0.00 91 1014.9
20260901082150 81 97 0.0 0.0 0.00 0.00 0.00 91 1014.9
20260901081648 81 97 0.0 0.0 0.00 0.00 0.00 91 1014.9
20260901081145 81 97 0.0 0.0 0.00 0.00 0.00 91 1014.9
20260901080611 81 97 0.0 0.0 0.00 0.00 0.00 90 1014.9
20260901080108 81 97 0.0 0.0 0.00 0.00 0.00 90 1014.9
20260901075531 81 97 0.0 0.0 0.00 0.00 0.00 90 1014.9
20260901075028 81 97 0.0 0.0 0.00 0.00 0.00 90 1014.9
20260901074525 81 97 0.0 0.0 0.00 0.00 0.00 90 1014.9
20260901074022 81 97 0.0 0.0 0.00 0.00 0.00 90 1014.9
20260901073501 81 97 0.0 0.0 0.00 0.00 0.00 90 1014.9
20260901072939 81 97 0.0 0.0 0.00 0.00 0.00 89 1014.9
20260901072416 81 97 0.0 0.0 0.00 0.00 0.00 89 1014.9
20260901071914 81 97 0.0 0.0 0.00 0.00 0.00 89 1014.9
20260901071401 81 97 0.0 0.0 0.00 0.00 0.00 89 1014.9
20260901070857 81 97 0.0 0.0 0.00 0.00 0.00 89 1015.2
20260901070348 82 97 0.0 0.0 0.00 0.00 0.00 89 1015.2
20260901065814 82 97 0.0 0.0 0.00 0.00 0.00 89 1015.2
20260901065311 82 97 0.0 0.0 0.00 0.00 0.00 89 1015.2
20260901064808 82 97 0.0 0.0 0.00 0.00 0.00 89 1015.2
20260901064305 82 97 0.0 0.0 0.00 0.00 0.00 89 1015.2
20260901063802 82 97 0.0 0.0 0.00 0.00 0.00 89 1015.2
20260901063300 82 97 0.0 0.0 0.00 0.00 0.00 89 1014.9
20260901062726 82 97 0.0 0.0 0.00 0.00 0.00 89 1014.9
20260901062204 82 97 0.0 0.0 0.00 0.00 0.00 89 1015.2
20260901061701 82 97 0.0 0.9 0.00 0.00 0.00 89 1015.2
20260901061158 82 97 0.0 0.9 0.00 0.00 0.00 89 1015.2
20260901060624 82 97 0.0 0.9 0.00 0.00 0.00 89 1015.2
20260901060121 82 97 0.0 0.0 0.00 0.00 0.00 89 1015.2
20260901055546 82 97 0.0 0.0 0.00 0.00 0.00 89 1015.2
20260901055043 82 97 0.0 0.0 0.00 0.00 0.00 89 1015.2
20260901054540 82 97 0.0 0.0 0.00 0.00 0.00 88 1015.2
20260901054036 82 97 0.0 0.0 0.00 0.00 0.00 88 1015.2
20260901053533 82 97 0.0 0.0 0.00 0.00 0.00 88 1015.2
20260901053030 82 97 0.0 0.0 0.00 0.00 0.00 88 1015.2
20260901052525 82 97 0.0 0.0 0.00 0.00 0.00 88 1015.2
20260901052022 82 97 0.0 0.0 0.00 0.00 0.00 88 1015.2
20260901051519 82 97 0.0 0.0 0.00 0.00 0.00 88 1015.2
20260901050957 82 97 0.0 0.0 0.00 0.00 0.00 87 1015.2
20260901050435 82 97 0.0 0.0 0.00 0.00 0.00 87 1015.2
20260901045932 82 97 0.0 0.0 0.00 0.00 0.00 87 1015.2
20260901045429 82 97 0.0 0.0 0.00 0.00 0.00 88 1015.2
20260901044855 82 97 0.0 0.0 0.00 0.00 0.00 88 1014.9
20260901044321 82 97 0.0 0.0 0.00 0.00 0.00 87 1014.9
20260901043818 82 97 0.0 0.0 0.00 0.00 0.00 87 1015.2
20260901043244 82 97 0.0 0.0 0.00 0.00 0.00 87 1015.2
20260901042741 82 97 0.0 0.0 0.00 0.00 0.00 87 1015.2
20260901042238 82 97 0.0 0.0 0.00 0.00 0.00 87 1015.2
20260901041645 82 97 0.0 0.0 0.00 0.00 0.00 87 1015.2
20260901041140 82 97 0.0 0.0 0.00 0.00 0.00 87 1015.2
20260901040606 82 97 0.0 0.0 0.00 0.00 0.00 87 1015.2
20260901040032 82 97 0.0 0.0 0.00 0.00 0.00 87 1015.2
20260901035528 82 97 0.0 0.0 0.00 0.00 0.00 86 1015.2
20260901034953 82 97 0.0 0.0 0.00 0.00 0.00 86 1014.9
20260901034450 82 97 0.0 0.0 0.00 0.00 0.00 86 1014.9
20260901033947 82 97 0.0 0.0 0.00 0.00 0.00 86 1014.9
20260901033444 83 97 0.0 0.0 0.00 0.00 0.00 86 1014.9
20260901032940 83 97 0.0 0.0 0.00 0.00 0.00 86 1015.2
20260901032405 83 97 0.0 0.0 0.00 0.00 0.00 86 1015.2
20260901031903 83 97 0.0 0.0 0.00 0.00 0.00 86 1014.9
20260901031400 83 97 0.0 0.0 0.00 0.00 0.00 86 1014.9
20260901030855 83 97 0.0 0.0 0.00 0.00 0.00 86 1014.9
20260901030352 83 97 0.0 0.0 0.00 0.00 0.00 86 1014.9
20260901025849 83 97 0.0 0.0 0.00 0.00 0.00 86 1014.9
20260901025346 83 97 0.0 0.0 0.00 0.00 0.00 86 1014.9
20260901024843 83 97 0.0 0.0 0.00 0.00 0.00 86 1014.6
20260901024340 84 97 0.0 0.0 0.00 0.00 0.00 86 1014.6
20260901023837 84 97 0.0 0.0 0.00 0.00 0.00 86 1014.2
20260901023334 84 97 0.0 0.0 0.00 0.00 0.00 86 1014.2
20260901022831 84 97 0.0 0.0 0.00 0.00 0.00 86 1014.2
20260901022256 84 97 0.0 0.0 0.00 0.00 0.00 85 1014.2
20260901021726 84 97 0.0 0.0 0.00 0.00 0.00 85 1014.2
20260901021151 84 97 0.0 0.0 0.00 0.00 0.00 85 1014.2
20260901020115 85 97 0.0 0.0 0.00 0.00 0.00 85 1013.9
20260901015553 85 97 0.0 0.0 0.00 0.00 0.00 84 1013.9
20260901015050 85 97 0.0 0.0 0.00 0.00 0.00 84 1013.9